STARLINK-33855, 64335

Orbit data source: Space-Track

STARLINK-33855, 64335 is a payload satellite owned by SpaceX/Seattle (US) in LEO that was launched on Tue, 10 Jun 2025 UTC via an FALCON 9 launch vehicle from the Air Force Eastern Test Range (AFETR). Payload-class satellites include a variety of spacecraft equipped with specific instruments for various scientific and technological missions. These include communications satellites like Starlink; space stations such as the ISS; scientific satellites like the Hubble; Earth observation satellites from companies like Planet Labs, Umbra, and HawkEye 360; GPS; miniature CubeSats for education and research; and military/defense satellites.

Loading next visibility...
Identifier
64335, 2025-124U
Orbit
LEO
Country
Flag of USUS
Related business
Manufacturer
SpaceX/Seattle
Mission
Operational Commercial Communications
Bus & Motor
STARLINK V2MO, Unknown motor
Mass
575 kg wet, ~530 kg dry
Launch date (UTC)
2025-06-10 (10 months ago)
Launch vehicle
FALCON 9
Launch site
Air Force Eastern Test Range (AFETR)
Object type
Payload
Rocket body
Debris
Shape & HBR
Box + 2 Pan, 17.7 m
Radar Cross Section
36.964 m², Large (>1 m²)

Expand to show TLE details & history
Last TLE update: 17 hours ago

TLE from 17 hours ago
0 STARLINK-33855
1 64335U 25124U   26112.04946941  .00005477  00000-0  20847-3 0  9991
2 64335  42.9997 236.6632 0000346 358.1358   1.9492 15.27569669 48415
Epoch: 2026-04-22T01:11Z
TLE epoch observation values (Epoch: 2026-04-22T01:11:14.157Z)
Latitude
-0.00002°
Longitude
8.73772°
Altitude
482.618 km
Speed
7.626 km/s
True Right ascension
15h 46m 39s
True Declination
0° 00' 00"
Sunlit
Object was in full shadow at epoch
Visualization orbit readout
Latitude
Unknown
Longitude
Unknown
Altitude
Unknown
Speed
Unknown
Apparent Right ascension
Unknown
Apparent Declination
Unknown
Sunlit
N/A
Visualization observer readout
Local Sidereal Time
00:51:01
Azimuth
Unknown
Elevation
Unknown
Doppler factor
Unknown
Orbital elements
Apogee altitude
485.263 km
Perigee altitude
484.788 km
Semi-major axis
6,863.162 km
Eccentricity
0.00003
Inclination
42.9997°
RAAN
236.6632°
Arg. of periapsis
358.1358°
True anomaly
1.94933°
Mean anomaly
1.9492°
Eccentric anomaly
1.94927°
Mean motion
3.8173 °/min
Orbital period
94.31 mins
BSTAR
0.00020847
Loading maneuver chart data...
Computing Atmospheric mass density...
Loading historical data...
Loading historical data...
Loading historical data...
Loading historical data...
Loading historical data...
Loading historical data...
Loading historical data...

Documentation

Showing up to 5 results
|